Погода в Калангуте

Индия     15°32′08″N   73°45′46″E
темп.,
°C
ветер,
м/с
пор.,
м/с
влажн.,
%
обл.,
%
осадки,
мм/ч
давл.,
гПа
погр.,
м
28 ноября, вс
вс2823:30+25в346611 0.0 1012138
02:30+24всв4463100 0.0 1010133
05:30+23всв3363100 0.0 1011141
08:30+24всв346294 0.0 1013171
11:30+28всв235246 0.0 1012514
14:30+29зюз3353100 0.0 1009554
17:30+28сз446256 0.0 1009136
20:30+27св3367100 0.0 1011107
29 ноября, пн
пн2923:30+26в4571100 0.0 1011196
02:30+25в3473100 0.0 1010165
05:30+25всв4576100 0.0 1010251
08:30+26в487497 0.0 1012484
11:30+29в366599 0.0 1011685
14:30+29вюв4667100 0.0 1008454
17:30+28всв467393 0.1 1009300
20:30+27св4474100 0.1 1011154
30 ноября, вт
вт3023:30+26всв347687 0.1 1010175
02:30+25в4677100 0.0 1009287
05:30+25в597899 0.0 1009511
08:30+26всв3674100 0.0 1011375
11:30+29в4664100 0.0 1011670
14:30+29вюв576598 0.0 1007561
17:30+28ю1270100 0.3 100788
20:30+26ююв5681100 1.4 1010356
1 декабря, ср
ср123:30+24в2489100 4.3 1010200
02:30+24св3589100 2.3 1008258
05:30+24в71493100 11.5 1007718
08:30+24в61289100 5.6 1010714
11:30+25вюв5985100 8.9 1010614
14:30+25юв71187100 2.1 1007741
17:30+24вюв71190100 4.0 1008522
20:30+24юв5988100 0.4 1010467
2 декабря, чт
чт223:30+25юв6887100 1.1 1010545
02:30+25юв5788100 2.2 1008450
05:30+25юв5688100 5.1 1008380
08:30+26юв6785100 1.1 1011524
11:30+27ююв6778100 2.1 1011811
14:30+27ю678086 1.3 1008761
17:30+27ю45799 1.7 1008602
20:30+26ююв34814 1.9 1010341